Regional Weather Roundup
Issued by NWS

Home | Current Version | Previous Version | Graphics & Text | Print | Product List | Glossary On
Versions: 1 2 3 4 5 6 7 8 9 10 11 12 13 14 15 16 17 18 19 20 21 22 23 24 25 26 27 28 29 30 31 32 33 34 35 36 37 38 39 40 41 42 43 44 45 46 47 48 49 50
000
ASUS43 KDTX 232210
RWRMI
MICHIGAN HOURLY REGIONAL WEATHER ROUNDUP
NATIONAL WEATHER SERVICE DETROIT/PONTIAC MI
600 PM EDT SAT SEP 23 2017

NOTE: "FAIR" INDICATES FEW OR NO CLOUDS BELOW 12,000 FEET WITH NO
SIGNIFICANT WEATHER AND/OR OBSTRUCTION TO VISIBILITY.

MIZ047>049-052>055-059>063-066>070-074>076-081>083-232300-
SOUTHEAST LOWER MICHIGAN

CITY           SKY/WX    TMP DP  RH WIND       PRES   REMARKS
ADRIAN         SUNNY     88  61  40 SE10      30.11S
ALMA           SUNNY     92  54  27 CALM      30.08S HX  90
ANN ARBOR      SUNNY     88  66  48 SE7       30.10S HX  90
BAD AXE        SUNNY     88  67  48 CALM      30.10S HX  90
CARO           SUNNY     91  63  39 S5        30.08S HX  91
DETROIT CITY   SUNNY     86  62  44 SE7       30.10F
DETROIT        SUNNY     88  66  48 S7        30.11S HX  90
FLINT          SUNNY     90  61  37 S5        30.09S HX  90
GROSSE ILE     SUNNY     79  65  61 S5        30.10S
HILLSDALE      SUNNY     88  59  37 SE6       30.11S
HOWELL         SUNNY     91  55  29 SE7       30.11R

CITY           SKY/WX    TMP DP  RH WIND       PRES   REMARKS
JACKSON        SUNNY     91  56  30 SE7       30.10S
LAMBERTVILLE   SUNNY     84  64  50 CALM      30.10S
LANSING        SUNNY     91  57  31 S6        30.09S
LAPEER         FAIR      90  60  36 S3        30.11R
MASON          SUNNY     92  55  28 SE6       30.10S HX  90
MONROE         SUNNY     85  58  38 E3        30.10S
MT. CLEMENS    SUNNY     83  66  56 S6        30.09S
PONTIAC        MOSUNNY   89  60  37 SE7       30.10S
PORT HOPE        N/A     81  70  69 SE3       30.08R
PORT HURON     SUNNY     90  66  45 SW6       30.10R HX  92
TRI CITIES     SUNNY     93  64  38 SE7       30.08S HX  94
MIDLAND        FAIR      93  63  36 CALM      30.06S HX  94
TROY           SUNNY     89  60  38 SE3       30.12S
SAGINAW HB     SUNNY     91  61  35 S6        30.07S HX  91
$$
MIZ043>046-050>051-056>058-064>065-071>073-077>080-232300-
SOUTHWEST LOWER MICHIGAN

CITY           SKY/WX    TMP DP  RH WIND       PRES   REMARKS
BATTLE CREEK   SUNNY     92  57  30 SE7       30.10R HX  90
BENTON HARBOR  SUNNY     87  65  47 NW3       30.06F
BIG RAPIDS     SUNNY     89  61  38 W7        30.07F
COLDWATER      SUNNY     89  58  34 SE5       30.10S
FREMONT        FAIR      91  61  36 W6        30.06F HX  91
HOLLAND        SUNNY     90  64  42 NW6       30.07S HX  91
GRAND RAPIDS   MOSUNNY   94  58  29 SE7       30.07S HX  93
IONIA          FAIR      93  54  26 SE3       30.07S HX  91
KALAMAZOO      SUNNY     93  53  25 E5        30.08S HX  90
LUDINGTON      SUNNY     84  66  54 SW3       30.06S
MARSHALL       SUNNY     90  59  34 SE7       30.09R
MUSKEGON       MOSUNNY   90  66  45 W6        30.06F HX  92
SOUTH HAVEN    SUNNY     87  65  47 NW3       30.07R
$$
MIZ016>042-232300-
NORTHERN LOWER MICHIGAN

CITY           SKY/WX    TMP DP  RH WIND       PRES   REMARKS
ALPENA         SUNNY     91  68  46 SW6       30.06S HX  95
BEAVER ISLAND  SUNNY     82  65  57 S9        30.04R
BELLAIRE       SUNNY     89  62  40 CALM      30.04S HX  90
CADILLAC       MOSUNNY   90  59  35 SW6       30.09S
CHARLEVOIX     SUNNY     88  63  43 SW6       30.07S
FRANKFORT      SUNNY     83  67  56 CALM      30.06S
GAYLORD        SUNNY     86  63  45 SW8       30.09S
GRAYLING       SUNNY     89  62  39 W5        30.09F
HARBOR SPRINGS SUNNY     80  65  59 CALM      30.04S
HOUGHTON LAKE  SUNNY     88  64  44 S5        30.10S
MANISTEE       SUNNY     88  68  51 SW7       30.05S HX  91
OSCODA         SUNNY     88  65  47 S7        30.07S HX  90
PELLSTON       SUNNY     88  64  44 SW8       30.05S
ROGERS CITY    SUNNY     84  67  57 CALM      30.06R
TRAVERSE CITY  MOSUNNY   92  63  38 W7        30.03S HX  93
$$
MIZ007>008-015-232300-
EASTERN UPPER MICHIGAN

CITY           SKY/WX    TMP DP  RH WIND       PRES   REMARKS
KINROSS        SUNNY     84  68  58 SW9       30.04R
MACKINAC ISLAN SUNNY     81  64  57 SW5       30.04S
NEWBERRY       SUNNY     81  69  68 S9        30.02R
S. S. MARIE    SUNNY     85  67  54 SW9       30.02R
MUNISING         N/A     86  71  60 S10       29.96S HX  91
$$
MIZ004>006-011>014-085-232300-
CENTRAL UPPER MICHIGAN

CITY           SKY/WX    TMP DP  RH WIND       PRES   REMARKS
MANISTIQUE     SUNNY     71  64  81 S8        30.02S
ESCANABA       SUNNY     77  68  73 S10       29.99S
MENOMINEE      SUNNY     87  69  54 SW9       30.01S HX  91
SAWYER-GWINN   SUNNY     88  66  48 SW12      29.99F HX  90
$$
MIZ001>003-009>011-084-232300-
WESTERN UPPER MICHIGAN

CITY           SKY/WX    TMP DP  RH WIND       PRES   REMARKS
IRON MOUNTAIN  SUNNY     88  62  41 S12       30.00R
HOUGHTON       PTSUNNY   82  70  66 N7        29.95R
COPPER HARBOR    N/A     74  65  73 E5        29.94R
IRONWOOD       SUNNY     85  69  58 SW12G18   29.97
$$

ABBREVIATIONS USED IN REMARKS
   TC - TEMPERATURE IN CELSIUS
  WCI - WIND CHILL INDEX
   HX - HEAT INDEX
  VSB - VISIBILITY





USA.gov is the U.S. government's official web portal to all federal, state and local government web resources and services.